Flag for U.S.A. Weather past 2 weeks in Kennebunk, Maine, U.S.A.

16 °F


Feels Like: 16 °F
Forecast: 23 / 43 °F
Wind: No wind

Location: Sanford Municipal

Current Time: Nov 25, 2015 at 5:16:32 AM

Latest Report: Nov 25, 2015 at 4:35 AM

Visibility: 10 mi

Pressure: 30.62 "Hg

Humidity: 73%

Dew point: 9 °F

Location of KennebunkLocation

Historic Weather in Kennebunk — Graph


Kennebunk temperature yesterday

Maximum temperature yesterday: 39 °F (at 11:55 AM)
Minimum temperature yesterday: 18 °F (at 11:55 PM)
Average temperature yesterday: 29 °F

Past Weeks' High & Low Weather Summary

High59 °F (Nov 13, 11:15 AM)93% (Nov 10, 6:55 AM)30.61 "Hg (Nov 10, 6:55 AM)
Low14 °F (Nov 18, 5:35 AM)24% (Nov 23, 12:35 PM)29.37 "Hg (Nov 13, 3:35 AM)
Average39 °F65%30.07 "Hg
* Reported Nov 10 4:15 AM — Nov 25 4:15 AM, Kennebunk, Weather by CustomWeather, © 2015

Note: Actual official high and low records may vary slightly from our data, if they occured in-between our weather recording intervals... More about our weather records


Kennebunk weather history for previous 24 hours

Time TempWeatherWind HumidityBarometerVisibility
4:15 AM
Wed, Nov 25
16 °FClear.No wind79%30.61 "Hg10 mi
3:55 AM16 °FClear.No wind73%30.60 "Hg10 mi
3:35 AM18 °FClear.No wind79%30.60 "Hg10 mi
3:15 AM18 °FClear.No wind79%30.59 "Hg10 mi
2:55 AM18 °FClear.No wind73%30.58 "Hg10 mi
2:15 AM18 °FClear.No wind73%30.57 "Hg10 mi
1:55 AM16 °FClear.No wind86%30.56 "Hg10 mi
1:15 AM18 °FClear.No wind73%30.53 "Hg10 mi
12:55 AM19 °FClear.No wind86%30.52 "Hg10 mi
12:35 AM19 °FClear.No wind73%30.51 "Hg10 mi
12:15 AM19 °FClear.No wind79%30.50 "Hg10 mi
11:55 PM
Tue, Nov 24
18 °FClear.No wind93%30.50 "Hg10 mi
11:35 PM19 °FClear.3 mph79%30.49 "Hg10 mi
11:15 PM21 °FPassing clouds.3 mph80%30.49 "Hg10 mi
10:35 PM19 °FClear.3 mph86%30.47 "Hg10 mi
10:15 PM21 °FClear.No wind68%30.47 "Hg10 mi
9:55 PM23 °FClear.No wind80%30.47 "Hg10 mi
9:35 PM21 °FClear.5 mph86%30.46 "Hg10 mi
9:15 PM25 °FClear.No wind80%30.45 "Hg10 mi
8:55 PM25 °FClear.No wind74%30.44 "Hg10 mi
8:35 PM27 °FPassing clouds.No wind64%30.43 "Hg10 mi
8:15 PM28 °FOvercast.No wind69%30.42 "Hg10 mi
6:55 PM28 °FOvercast.No wind80%30.39 "Hg10 mi
6:35 PM27 °FOvercast.No wind74%30.38 "Hg10 mi
6:15 PM27 °FPassing clouds.No wind64%30.37 "Hg10 mi
5:55 PM27 °FPassing clouds.No wind59%30.36 "Hg10 mi
5:15 PM27 °FPassing clouds.No wind64%30.35 "Hg10 mi
4:55 PM28 °FPassing clouds.No wind59%30.34 "Hg10 mi
4:35 PM32 °FPassing clouds.No wind47%30.33 "Hg10 mi
3:55 PM37 °FScattered clouds.7 mph41%30.31 "Hg10 mi
3:35 PM37 °FPassing clouds.6 mph41%30.31 "Hg10 mi
3:15 PM37 °FSunny.10 mph45%30.30 "Hg10 mi
2:55 PM39 °FSunny.12 mph42%30.28 "Hg10 mi
2:35 PM39 °FScattered clouds.12 mph42%30.28 "Hg10 mi
2:15 PM39 °FPassing clouds.13 mph42%30.27 "Hg10 mi
1:55 PM39 °FSunny.13 mph39%30.27 "Hg10 mi
1:35 PM39 °FSunny.14 mph39%30.27 "Hg10 mi
12:55 PM39 °FSunny.13 mph39%30.26 "Hg10 mi
12:35 PM39 °FPassing clouds.10 mph39%30.27 "Hg10 mi
12:15 PM39 °FSunny.12 mph39%30.27 "Hg10 mi
11:55 AM39 °FSunny.9 mph39%30.27 "Hg10 mi
11:35 AM37 °FSunny.12 mph41%30.27 "Hg10 mi
10:55 AM37 °FSunny.10 mph38%30.27 "Hg10 mi
10:35 AM36 °FSunny.13 mph44%30.28 "Hg10 mi
10:15 AM36 °FSunny.10 mph44%30.28 "Hg10 mi
9:55 AM34 °FSunny.9 mph48%30.29 "Hg10 mi
9:35 AM34 °FSunny.7 mph41%30.29 "Hg10 mi
9:15 AM32 °FSunny.8 mph44%30.29 "Hg10 mi
8:55 AM30 °FSunny.6 mph51%30.28 "Hg10 mi
8:35 AM30 °FSunny.7 mph47%30.27 "Hg10 mi
8:15 AM28 °FSunny.6 mph47%30.27 "Hg10 mi
7:55 AM27 °FSunny.6 mph69%30.27 "Hg10 mi
7:35 AM19 °FSunny.6 mph68%30.26 "Hg10 mi
7:15 AM19 °FSunny.3 mph63%30.25 "Hg10 mi
6:55 AM19 °FSunny.No wind68%30.24 "Hg10 mi
6:35 AM21 °FClear.3 mph54%30.23 "Hg10 mi
6:15 AM23 °FClear.9 mph58%30.22 "Hg10 mi
5:55 AM25 °FClear.8 mph54%30.21 "Hg10 mi
5:35 AM25 °FClear.7 mph50%30.21 "Hg10 mi
5:15 AM21 °FClear.7 mph63%30.19 "Hg10 mi
Weather by CustomWeather, © 2015

See weather overviewHow to use our weather pages